FIN1476 LOWW-EFHK

Flight info

Callsign FIN1476
Flight time 1h 58m
Altitude 35000
Route LEDVA DCT KATQA DCT BAVOK DCT NAVUR DCT SUTIK DCT SUWGI M985 BOKSU DCT GUNTA M857 SOKVA DCT ANAMA DCT KEMET DCT KEXLE DCT BEKNA DCT INTOR
Aircraft B738/M-SDE2E3FGHIRWXY/LB1

Departure

Time 2026-05-07 16:26
Airport Vienna International Airport (LOWW)

Arrival

Time 2026-05-07 18:24
Airport Helsinki Vantaa Airport (EFHK)
Time Latitude Longitude Altitude Speed Heading
2026-05-07 15:43 48.11986 16.55581 615 ft 0 kts 101°
2026-05-07 16:15 48.11988 16.55563 612 ft 4 kts 106°
2026-05-07 16:15 48.11999 16.55528 619 ft 4 kts 135°
2026-05-07 16:15 48.12018 16.55513 619 ft 4 kts 197°
2026-05-07 16:15 48.12024 16.55516 616 ft 1 kts 206°
2026-05-07 16:20 48.12014 16.55509 620 ft 6 kts 206°
2026-05-07 16:20 48.11967 16.55475 611 ft 8 kts 205°
2026-05-07 16:20 48.11918 16.55445 608 ft 8 kts 189°
2026-05-07 16:20 48.11877 16.55501 617 ft 11 kts 109°
2026-05-07 16:21 48.11840 16.55621 619 ft 15 kts 115°
2026-05-07 16:21 48.11790 16.55776 611 ft 18 kts 117°
2026-05-07 16:21 48.11729 16.55964 615 ft 22 kts 116°
2026-05-07 16:21 48.11662 16.56167 615 ft 22 kts 116°
2026-05-07 16:22 48.11598 16.56366 617 ft 21 kts 117°
2026-05-07 16:22 48.11534 16.56558 616 ft 20 kts 115°
2026-05-07 16:22 48.11473 16.56746 609 ft 21 kts 116°
2026-05-07 16:22 48.11403 16.56961 613 ft 25 kts 116°
2026-05-07 16:23 48.11320 16.57216 610 ft 28 kts 116°
2026-05-07 16:23 48.11238 16.57466 614 ft 20 kts 115°
2026-05-07 16:23 48.11195 16.57590 614 ft 13 kts 136°
2026-05-07 16:23 48.11116 16.57566 614 ft 12 kts 216°
2026-05-07 16:24 48.11047 16.57506 612 ft 11 kts 203°
2026-05-07 16:24 48.10976 16.57454 608 ft 10 kts 213°
2026-05-07 16:24 48.10965 16.57381 615 ft 0 kts 295°
2026-05-07 16:24 48.10966 16.57378 615 ft 0 kts 295°
2026-05-07 16:25 48.11002 16.57264 620 ft 42 kts 296°
2026-05-07 16:25 48.11235 16.56550 616 ft 109 kts 296°
2026-05-07 16:25 48.11642 16.55270 615 ft 164 kts 292°
2026-05-07 16:25 48.12145 16.53622 1123 ft 175 kts 294°
2026-05-07 16:26 48.12533 16.51912 1788 ft 183 kts 270°
2026-05-07 16:26 48.12261 16.50034 2513 ft 184 kts 251°
2026-05-07 16:26 48.11849 16.48156 2889 ft 204 kts 249°
2026-05-07 16:26 48.11542 16.46742 3012 ft 219 kts 259°
2026-05-07 16:27 48.11797 16.43597 3374 ft 242 kts 281°
2026-05-07 16:27 48.12143 16.41015 3638 ft 261 kts 281°
2026-05-07 16:27 48.12465 16.38359 4488 ft 258 kts 281°
2026-05-07 16:27 48.12771 16.35688 5220 ft 262 kts 280°
2026-05-07 16:28 48.13070 16.32968 5934 ft 266 kts 280°
2026-05-07 16:28 48.13362 16.30221 6648 ft 269 kts 279°
2026-05-07 16:28 48.13653 16.27448 7351 ft 271 kts 279°
2026-05-07 16:28 48.13946 16.24644 8020 ft 274 kts 279°
2026-05-07 16:29 48.14191 16.22791 8475 ft 275 kts 288°
2026-05-07 16:29 48.15196 16.20367 9166 ft 277 kts 316°
2026-05-07 16:29 48.16795 16.18741 9852 ft 282 kts 332°
2026-05-07 16:29 48.19191 16.17001 10345 ft 301 kts 332°
2026-05-07 16:30 48.20491 16.16067 10447 ft 314 kts 333°
2026-05-07 16:30 48.23428 16.15165 10675 ft 344 kts
2026-05-07 16:30 48.25712 16.16340 11156 ft 355 kts 31°
2026-05-07 16:30 48.27045 16.17865 11582 ft 358 kts 39°
2026-05-07 16:31 48.28937 16.20325 12217 ft 362 kts 40°
2026-05-07 16:31 48.30826 16.22864 12835 ft 367 kts 41°
2026-05-07 16:31 48.32709 16.25408 13473 ft 371 kts 41°
2026-05-07 16:31 48.34647 16.28012 14075 ft 376 kts 41°
2026-05-07 16:32 48.36614 16.30638 14653 ft 381 kts 41°
2026-05-07 16:32 48.38618 16.33300 15172 ft 387 kts 41°
2026-05-07 16:32 48.40653 16.35993 15775 ft 391 kts 41°
2026-05-07 16:32 48.42707 16.38708 16395 ft 395 kts 41°
2026-05-07 16:33 48.44783 16.41452 16992 ft 399 kts 41°
2026-05-07 16:33 48.46885 16.44231 17588 ft 404 kts 41°
2026-05-07 16:33 48.49011 16.47045 18163 ft 409 kts 41°
2026-05-07 16:33 48.51158 16.49891 18670 ft 413 kts 41°
2026-05-07 16:34 48.53323 16.52764 19190 ft 416 kts 41°
2026-05-07 16:34 48.55506 16.55663 19689 ft 420 kts 41°
2026-05-07 16:34 48.57711 16.58597 20146 ft 425 kts 42°
2026-05-07 16:34 48.59940 16.61565 20629 ft 429 kts 42°
2026-05-07 16:35 48.62188 16.64563 21129 ft 433 kts 42°
2026-05-07 16:35 48.64454 16.67588 21609 ft 436 kts 42°
2026-05-07 16:35 48.66709 16.70603 22055 ft 440 kts 43°
2026-05-07 16:35 48.69015 16.73688 22510 ft 444 kts 43°
2026-05-07 16:36 48.71340 16.76803 22959 ft 448 kts 43°
2026-05-07 16:36 48.73705 16.80021 23279 ft 454 kts 46°
2026-05-07 16:36 48.75963 16.83376 23666 ft 457 kts 48°
2026-05-07 16:36 48.78154 16.86803 24065 ft 459 kts 49°
2026-05-07 16:37 48.80359 16.90302 24450 ft 461 kts 49°
2026-05-07 16:37 48.82585 16.93829 24811 ft 464 kts 49°
2026-05-07 16:37 48.84842 16.97379 25164 ft 468 kts 49°
2026-05-07 16:37 48.87118 17.00937 25508 ft 471 kts 48°
2026-05-07 16:38 48.89407 17.04505 25873 ft 474 kts 48°
2026-05-07 16:38 48.91714 17.08099 26229 ft 476 kts 48°
2026-05-07 16:38 48.94031 17.11715 26599 ft 478 kts 49°
2026-05-07 16:38 48.96356 17.15348 26951 ft 480 kts 49°
2026-05-07 16:39 48.98698 17.19014 27270 ft 483 kts 49°
2026-05-07 16:39 49.01059 17.22680 27582 ft 487 kts 46°
2026-05-07 16:39 49.03670 17.26009 27880 ft 493 kts 36°
2026-05-07 16:39 49.06565 17.28834 28226 ft 495 kts 33°
2026-05-07 16:40 49.09519 17.31576 28548 ft 497 kts 32°
2026-05-07 16:40 49.12491 17.34306 28815 ft 500 kts 32°
2026-05-07 16:40 49.15474 17.37065 29097 ft 503 kts 33°
2026-05-07 16:40 49.18456 17.39854 29398 ft 505 kts 33°
2026-05-07 16:41 49.21447 17.42683 29696 ft 506 kts 33°
2026-05-07 16:41 49.24445 17.45539 29964 ft 509 kts 33°
2026-05-07 16:41 49.27450 17.48418 30224 ft 510 kts 33°
2026-05-07 16:41 49.30454 17.51302 30564 ft 509 kts 33°
2026-05-07 16:42 49.33448 17.54181 30915 ft 508 kts 33°
2026-05-07 16:42 49.36442 17.57064 31203 ft 508 kts 33°
2026-05-07 16:42 49.39438 17.59951 31494 ft 508 kts 33°
2026-05-07 16:42 49.42430 17.62838 31825 ft 507 kts 33°
2026-05-07 16:43 49.45415 17.65721 32162 ft 506 kts 33°
2026-05-07 16:43 49.48393 17.68601 32492 ft 505 kts 33°
2026-05-07 16:43 49.51328 17.71443 32789 ft 505 kts 33°
2026-05-07 16:43 49.54305 17.74332 33009 ft 507 kts 33°
2026-05-07 16:44 49.57289 17.77230 33270 ft 507 kts 33°
2026-05-07 16:44 49.60267 17.80128 33602 ft 505 kts 33°
2026-05-07 16:44 49.63228 17.83013 33933 ft 504 kts 33°
2026-05-07 16:44 49.66188 17.85901 34210 ft 503 kts 33°
2026-05-07 16:45 49.69145 17.88790 34479 ft 501 kts 33°
2026-05-07 16:45 49.72088 17.91670 34721 ft 500 kts 33°
2026-05-07 16:45 49.75027 17.94551 34931 ft 500 kts 33°
2026-05-07 16:46 49.80940 18.00360 34943 ft 505 kts 33°
2026-05-07 16:46 49.86845 18.06177 34927 ft 501 kts 33°
2026-05-07 16:47 49.92700 18.11962 34947 ft 497 kts 33°
2026-05-07 16:47 49.98515 18.17731 34941 ft 495 kts 34°
2026-05-07 16:48 50.03676 18.24687 34958 ft 490 kts 49°
2026-05-07 16:48 50.08307 18.32477 34948 ft 491 kts 50°
2026-05-07 16:49 50.12939 18.40302 34950 ft 493 kts 50°
2026-05-07 16:49 50.17596 18.48082 34949 ft 495 kts 49°
2026-05-07 16:50 50.22323 18.55946 34945 ft 497 kts 49°
2026-05-07 16:50 50.27055 18.63835 34947 ft 499 kts 49°
2026-05-07 16:51 50.31804 18.71782 34948 ft 500 kts 50°
2026-05-07 16:51 50.36549 18.79750 34929 ft 500 kts 49°
2026-05-07 16:52 50.41287 18.87735 34933 ft 500 kts 49°
2026-05-07 16:52 50.45990 18.95684 34939 ft 500 kts 49°
2026-05-07 16:53 50.50714 19.03694 34946 ft 499 kts 49°
2026-05-07 16:53 50.55426 19.11709 34937 ft 499 kts 49°
2026-05-07 16:54 50.60124 19.19724 34937 ft 498 kts 50°
2026-05-07 16:54 50.64806 19.27738 34944 ft 496 kts 50°
2026-05-07 16:55 50.69471 19.35750 34955 ft 495 kts 50°
2026-05-07 16:55 50.74116 19.43750 34946 ft 494 kts 50°
2026-05-07 16:56 50.78749 19.51756 34947 ft 493 kts 50°
2026-05-07 16:56 50.85639 19.63709 34925 ft 491 kts 50°
2026-05-07 16:57 50.90238 19.71721 34941 ft 491 kts 50°
2026-05-07 16:57 50.94824 19.79738 34953 ft 491 kts 50°
2026-05-07 16:58 50.99413 19.87769 34952 ft 492 kts 49°
2026-05-07 16:58 51.04722 19.94628 34954 ft 495 kts 31°
2026-05-07 16:59 51.10663 20.00151 34950 ft 496 kts 30°
2026-05-07 16:59 51.16639 20.05658 34955 ft 496 kts 30°
2026-05-07 17:00 51.22600 20.11264 34957 ft 497 kts 31°
2026-05-07 17:00 51.28543 20.16928 34959 ft 498 kts 31°
2026-05-07 17:01 51.34449 20.22588 34961 ft 498 kts 31°
2026-05-07 17:01 51.40388 20.28292 34964 ft 498 kts 31°
2026-05-07 17:02 51.46323 20.34005 34961 ft 497 kts 31°
2026-05-07 17:02 51.52249 20.39726 34965 ft 496 kts 31°
2026-05-07 17:03 51.58155 20.45446 34966 ft 496 kts 31°
2026-05-07 17:03 51.64061 20.51183 34968 ft 495 kts 31°
2026-05-07 17:04 51.69948 20.56920 34965 ft 494 kts 31°
2026-05-07 17:04 51.75824 20.62663 34968 ft 493 kts 31°
2026-05-07 17:05 51.81689 20.68414 34968 ft 493 kts 31°
2026-05-07 17:05 51.87507 20.74137 34967 ft 493 kts 31°
2026-05-07 17:06 51.93356 20.79907 34970 ft 493 kts 31°
2026-05-07 17:06 51.99219 20.85709 34970 ft 493 kts 31°
2026-05-07 17:07 52.05076 20.91522 34968 ft 493 kts 31°
2026-05-07 17:07 52.10932 20.97354 34965 ft 494 kts 31°
2026-05-07 17:08 52.16781 21.03197 34968 ft 494 kts 31°
2026-05-07 17:08 52.22638 21.09065 34967 ft 494 kts 31°
2026-05-07 17:09 52.28493 21.14951 34968 ft 494 kts 31°
2026-05-07 17:09 52.34348 21.20854 34973 ft 494 kts 32°
2026-05-07 17:10 52.40200 21.26774 34966 ft 494 kts 32°
2026-05-07 17:10 52.46048 21.32710 34966 ft 494 kts 32°
2026-05-07 17:11 52.51890 21.38656 34968 ft 494 kts 32°
2026-05-07 17:11 52.57777 21.44477 34967 ft 494 kts 30°
2026-05-07 17:12 52.63721 21.49991 34967 ft 493 kts 29°
2026-05-07 17:12 52.69738 21.55566 34967 ft 493 kts 29°
2026-05-07 17:13 52.75654 21.61122 34945 ft 492 kts 29°
2026-05-07 17:13 52.81593 21.66749 34952 ft 492 kts 30°
2026-05-07 17:14 52.87522 21.72394 34961 ft 491 kts 30°
2026-05-07 17:14 52.93441 21.78043 34957 ft 491 kts 30°
2026-05-07 17:15 52.99371 21.83717 34964 ft 491 kts 30°
2026-05-07 17:15 53.05293 21.89403 34963 ft 492 kts 30°
2026-05-07 17:16 53.11213 21.95104 34966 ft 492 kts 30°
2026-05-07 17:16 53.17136 22.00828 34965 ft 493 kts 30°
2026-05-07 17:17 53.23064 22.06574 34962 ft 493 kts 30°
2026-05-07 17:17 53.28997 22.12344 34965 ft 494 kts 30°
2026-05-07 17:18 53.34932 22.18135 34966 ft 494 kts 30°
2026-05-07 17:18 53.40840 22.23918 34965 ft 495 kts 30°
2026-05-07 17:19 53.46784 22.29755 34965 ft 495 kts 30°
2026-05-07 17:19 53.52724 22.35608 34971 ft 496 kts 30°
2026-05-07 17:20 53.58673 22.41489 34968 ft 496 kts 30°
2026-05-07 17:20 53.64607 22.47375 34970 ft 496 kts 30°
2026-05-07 17:21 53.69555 22.52297 34969 ft 497 kts 30°
2026-05-07 17:21 53.75505 22.58235 34975 ft 497 kts 30°
2026-05-07 17:22 53.81453 22.64190 34977 ft 497 kts 30°
2026-05-07 17:22 53.87399 22.70163 34978 ft 497 kts 30°
2026-05-07 17:23 53.93344 22.76155 34980 ft 497 kts 30°
2026-05-07 17:23 53.99278 22.82157 34981 ft 497 kts 30°
2026-05-07 17:24 54.05214 22.88179 34982 ft 497 kts 30°
2026-05-07 17:24 54.11426 22.93253 35005 ft 494 kts 19°
2026-05-07 17:25 54.17834 22.97298 34987 ft 494 kts 18°
2026-05-07 17:25 54.24265 23.01495 34990 ft 495 kts 19°
2026-05-07 17:26 54.30689 23.05752 34989 ft 494 kts 16°
2026-05-07 17:26 54.37354 23.08340 35001 ft 490 kts
2026-05-07 17:27 54.44081 23.10325 34993 ft 491 kts
2026-05-07 17:27 54.50810 23.12364 34996 ft 491 kts
2026-05-07 17:28 54.57538 23.14508 35001 ft 492 kts
2026-05-07 17:28 54.64266 23.16701 35006 ft 492 kts
2026-05-07 17:29 54.70994 23.18905 34996 ft 492 kts
2026-05-07 17:29 54.77718 23.21111 34997 ft 492 kts
2026-05-07 17:30 54.84393 23.23305 35001 ft 491 kts
2026-05-07 17:30 54.91101 23.25517 35005 ft 491 kts
2026-05-07 17:31 54.97822 23.27740 35009 ft 491 kts
2026-05-07 17:31 55.04532 23.29967 35014 ft 491 kts
2026-05-07 17:32 55.11233 23.32199 35010 ft 491 kts
2026-05-07 17:32 55.17940 23.34441 35014 ft 491 kts
2026-05-07 17:33 55.24648 23.36691 35019 ft 491 kts
2026-05-07 17:33 55.31356 23.38949 35017 ft 491 kts
2026-05-07 17:34 55.38064 23.41214 35020 ft 491 kts
2026-05-07 17:34 55.44773 23.43487 35023 ft 491 kts
2026-05-07 17:35 55.51447 23.45757 35022 ft 491 kts
2026-05-07 17:35 55.58156 23.48046 35032 ft 492 kts
2026-05-07 17:36 55.64876 23.50347 35028 ft 492 kts
2026-05-07 17:36 55.71616 23.52663 35035 ft 492 kts
2026-05-07 17:37 55.78344 23.54983 35034 ft 492 kts
2026-05-07 17:37 55.85069 23.57311 35035 ft 492 kts
2026-05-07 17:38 55.91790 23.59645 35039 ft 492 kts
2026-05-07 17:38 55.98510 23.61987 35041 ft 492 kts
2026-05-07 17:39 56.05184 23.64321 35035 ft 492 kts
2026-05-07 17:39 56.11878 23.66671 35033 ft 491 kts
2026-05-07 17:40 56.18582 23.69033 35043 ft 491 kts
2026-05-07 17:40 56.25273 23.71398 35043 ft 490 kts
2026-05-07 17:41 56.31965 23.73772 35035 ft 490 kts
2026-05-07 17:41 56.38655 23.76168 35037 ft 490 kts
2026-05-07 17:42 56.45318 23.78791 35042 ft 490 kts
2026-05-07 17:42 56.51972 23.81468 35038 ft 489 kts
2026-05-07 17:43 56.58624 23.84112 35045 ft 489 kts
2026-05-07 17:43 56.65241 23.86612 35051 ft 489 kts
2026-05-07 17:44 56.71909 23.89026 35057 ft 488 kts
2026-05-07 17:44 56.78577 23.91470 35053 ft 488 kts
2026-05-07 17:45 56.85220 23.93936 35046 ft 487 kts
2026-05-07 17:45 56.91865 23.96412 35048 ft 486 kts
2026-05-07 17:46 56.98491 23.98707 35037 ft 484 kts
2026-05-07 17:46 57.05119 24.00868 35043 ft 483 kts
2026-05-07 17:47 57.11739 24.03052 35042 ft 483 kts
2026-05-07 17:47 57.18346 24.05268 35047 ft 482 kts
2026-05-07 17:48 57.24944 24.07496 35046 ft 482 kts
2026-05-07 17:48 57.31494 24.09714 35059 ft 482 kts
2026-05-07 17:49 57.38088 24.11954 35056 ft 482 kts
2026-05-07 17:49 57.44686 24.14204 35055 ft 481 kts
2026-05-07 17:50 57.51274 24.16460 35060 ft 481 kts
2026-05-07 17:50 57.57852 24.18722 35080 ft 481 kts
2026-05-07 17:51 57.64441 24.20997 35064 ft 481 kts
2026-05-07 17:51 57.71026 24.23278 35059 ft 481 kts
2026-05-07 17:52 57.77606 24.25567 35064 ft 481 kts
2026-05-07 17:52 57.84182 24.27862 35085 ft 480 kts
2026-05-07 17:53 57.90714 24.30148 35073 ft 480 kts
2026-05-07 17:53 57.97291 24.32412 35063 ft 480 kts
2026-05-07 17:54 58.03865 24.34662 35062 ft 480 kts
2026-05-07 17:54 58.10423 24.37160 35056 ft 482 kts
2026-05-07 17:55 58.16953 24.40189 35064 ft 484 kts
2026-05-07 17:55 58.23475 24.43257 35065 ft 483 kts
2026-05-07 17:56 58.30009 24.46260 35065 ft 483 kts
2026-05-07 17:56 58.36544 24.49229 35077 ft 483 kts
2026-05-07 17:57 58.41978 24.51698 35097 ft 483 kts
2026-05-07 17:57 58.46247 24.53654 35062 ft 466 kts
2026-05-07 17:57 58.49357 24.55090 35058 ft 453 kts
2026-05-07 17:58 58.52382 24.56488 34970 ft 442 kts
2026-05-07 17:58 58.55358 24.57858 34696 ft 437 kts
2026-05-07 17:58 58.58322 24.59180 34121 ft 439 kts
2026-05-07 17:58 58.61367 24.60232 32937 ft 451 kts
2026-05-07 17:59 58.64530 24.61113 31852 ft 464 kts
2026-05-07 17:59 58.67733 24.61946 31341 ft 463 kts
2026-05-07 17:59 58.70908 24.62786 31072 ft 456 kts
2026-05-07 17:59 58.74006 24.63635 30908 ft 445 kts
2026-05-07 18:00 58.77055 24.64493 30573 ft 440 kts
2026-05-07 18:00 58.80078 24.65354 30092 ft 438 kts
2026-05-07 18:00 58.83091 24.66221 29533 ft 437 kts
2026-05-07 18:00 58.86096 24.67092 28747 ft 439 kts
2026-05-07 18:01 58.89149 24.67973 27801 ft 447 kts
2026-05-07 18:01 58.92205 24.68866 27365 ft 441 kts
2026-05-07 18:01 58.95226 24.69758 26916 ft 436 kts
2026-05-07 18:01 58.98211 24.70641 26511 ft 432 kts
2026-05-07 18:02 59.04159 24.72392 25225 ft 434 kts
2026-05-07 18:02 59.07098 24.73258 24725 ft 431 kts
2026-05-07 18:02 59.10091 24.74145 24300 ft 427 kts
2026-05-07 18:03 59.12973 24.75002 23981 ft 421 kts
2026-05-07 18:03 59.15828 24.75858 23732 ft 408 kts
2026-05-07 18:03 59.18589 24.76689 23367 ft 398 kts
2026-05-07 18:03 59.21315 24.77502 22962 ft 394 kts
2026-05-07 18:04 59.24015 24.78303 22571 ft 390 kts
2026-05-07 18:04 59.26690 24.79098 22149 ft 387 kts
2026-05-07 18:04 59.29342 24.79887 21769 ft 384 kts
2026-05-07 18:04 59.31972 24.80672 21377 ft 381 kts
2026-05-07 18:05 59.34582 24.81453 20991 ft 378 kts
2026-05-07 18:05 59.37171 24.82230 20604 ft 375 kts
2026-05-07 18:05 59.39741 24.83002 20221 ft 372 kts
2026-05-07 18:05 59.42298 24.83772 19845 ft 370 kts
2026-05-07 18:06 59.44827 24.84535 19462 ft 367 kts
2026-05-07 18:06 59.47345 24.85296 19087 ft 365 kts
2026-05-07 18:06 59.49849 24.86053 18699 ft 363 kts
2026-05-07 18:06 59.52338 24.86808 18321 ft 361 kts
2026-05-07 18:07 59.54813 24.87559 17913 ft 359 kts
2026-05-07 18:07 59.57270 24.88306 17500 ft 356 kts
2026-05-07 18:07 59.59709 24.89049 17109 ft 353 kts
2026-05-07 18:07 59.62102 24.89780 16731 ft 350 kts
2026-05-07 18:08 59.64495 24.90511 16374 ft 347 kts
2026-05-07 18:08 59.66873 24.91240 16003 ft 344 kts
2026-05-07 18:08 59.69233 24.91962 15631 ft 342 kts
2026-05-07 18:08 59.71575 24.92680 15265 ft 339 kts
2026-05-07 18:09 59.73899 24.93394 14900 ft 337 kts
2026-05-07 18:09 59.76208 24.94103 14534 ft 335 kts
2026-05-07 18:09 59.78502 24.94809 14175 ft 333 kts
2026-05-07 18:09 59.80780 24.95511 13804 ft 331 kts
2026-05-07 18:10 59.83048 24.96211 13397 ft 329 kts
2026-05-07 18:10 59.85301 24.96908 13031 ft 326 kts
2026-05-07 18:10 59.87537 24.97601 12658 ft 324 kts
2026-05-07 18:10 59.89759 24.98290 12276 ft 322 kts
2026-05-07 18:11 59.91960 24.98974 12125 ft 318 kts
2026-05-07 18:11 59.93427 24.99431 12110 ft 314 kts
2026-05-07 18:11 59.96239 25.00310 11940 ft 304 kts
2026-05-07 18:11 59.98319 25.00959 11558 ft 301 kts
2026-05-07 18:12 60.00388 25.01603 11061 ft 300 kts
2026-05-07 18:12 60.02433 25.02242 10803 ft 291 kts
2026-05-07 18:12 60.03743 25.02654 10666 ft 285 kts
2026-05-07 18:12 60.05689 25.03264 10283 ft 282 kts
2026-05-07 18:13 60.07617 25.03867 10018 ft 278 kts
2026-05-07 18:13 60.09510 25.04461 9766 ft 275 kts
2026-05-07 18:13 60.11391 25.05051 9495 ft 272 kts
2026-05-07 18:13 60.13258 25.05637 9212 ft 271 kts
2026-05-07 18:14 60.15111 25.06220 8938 ft 269 kts
2026-05-07 18:14 60.16953 25.06801 8659 ft 267 kts
2026-05-07 18:14 60.18783 25.07379 8381 ft 265 kts
2026-05-07 18:14 60.20603 25.07954 8103 ft 264 kts
2026-05-07 18:15 60.22411 25.08526 7835 ft 262 kts
2026-05-07 18:15 60.24209 25.09096 7564 ft 261 kts
2026-05-07 18:15 60.25997 25.09663 7294 ft 259 kts
2026-05-07 18:15 60.27761 25.10223 7033 ft 258 kts
2026-05-07 18:16 60.29527 25.10784 6770 ft 256 kts
2026-05-07 18:16 60.31288 25.11345 6510 ft 255 kts
2026-05-07 18:16 60.33036 25.11902 6228 ft 254 kts
2026-05-07 18:16 60.34778 25.12416 5951 ft 252 kts
2026-05-07 18:17 60.36450 25.11781 5714 ft 248 kts 338°
2026-05-07 18:17 60.38002 25.10289 5457 ft 246 kts 333°
2026-05-07 18:17 60.39516 25.08700 5194 ft 244 kts 333°
2026-05-07 18:17 60.41023 25.07123 4936 ft 243 kts 333°
2026-05-07 18:18 60.42525 25.05566 4674 ft 242 kts 333°
2026-05-07 18:18 60.44022 25.04017 4405 ft 241 kts 333°
2026-05-07 18:18 60.45513 25.02478 4145 ft 240 kts 333°
2026-05-07 18:18 60.46998 25.00950 3899 ft 239 kts 333°
2026-05-07 18:19 60.48475 24.99429 3647 ft 237 kts 333°
2026-05-07 18:19 60.49922 24.97835 3377 ft 236 kts 324°
2026-05-07 18:19 60.50913 24.95218 3107 ft 238 kts 292°
2026-05-07 18:19 60.51117 24.91898 2864 ft 240 kts 264°
2026-05-07 18:20 60.50522 24.88737 2603 ft 244 kts 236°
2026-05-07 18:20 60.49267 24.86485 2494 ft 240 kts 210°
2026-05-07 18:20 60.47779 24.85150 2411 ft 228 kts 204°
2026-05-07 18:20 60.46339 24.84025 2265 ft 216 kts 197°
2026-05-07 18:21 60.44942 24.84215 2088 ft 201 kts 154°
2026-05-07 18:21 60.43768 24.85596 2042 ft 193 kts 156°
2026-05-07 18:21 60.42538 24.86639 2011 ft 191 kts 156°
2026-05-07 18:21 60.41360 24.87877 2008 ft 191 kts 153°
2026-05-07 18:22 60.40183 24.89118 1783 ft 187 kts 154°
2026-05-07 18:22 60.39424 24.89898 1654 ft 177 kts 155°
2026-05-07 18:22 60.38039 24.91316 1313 ft 160 kts 155°
2026-05-07 18:22 60.37072 24.92305 1092 ft 152 kts 155°
2026-05-07 18:23 60.36163 24.93239 938 ft 143 kts 156°
2026-05-07 18:23 60.35275 24.94148 718 ft 141 kts 154°
2026-05-07 18:23 60.34408 24.95036 559 ft 140 kts 154°
2026-05-07 18:23 60.33534 24.95946 335 ft 143 kts 154°
2026-05-07 18:24 60.32652 24.96840 173 ft 138 kts 152°
2026-05-07 18:24 60.31954 24.97547 152 ft 82 kts 153°
2026-05-07 18:24 60.31642 24.97867 151 ft 19 kts 153°
2026-05-07 18:24 60.31539 24.97970 152 ft 19 kts 161°
2026-05-07 18:25 60.31425 24.97902 154 ft 16 kts 237°
2026-05-07 18:25 60.31412 24.97856 154 ft 1 kts 243°
2026-05-07 18:25 60.31410 24.97847 154 ft 1 kts 243°
2026-05-07 18:25 60.31409 24.97841 154 ft 0 kts 243°
2026-05-07 18:26 60.31399 24.97804 155 ft 5 kts 243°
2026-05-07 18:27 60.31384 24.97742 156 ft 5 kts 245°
2026-05-07 18:27 60.31383 24.97673 157 ft 6 kts 295°
2026-05-07 18:27 60.31430 24.97607 159 ft 12 kts 331°
2026-05-07 18:27 60.31512 24.97522 159 ft 13 kts 333°
2026-05-07 18:28 60.31593 24.97434 163 ft 13 kts 330°
2026-05-07 18:28 60.31661 24.97360 165 ft 11 kts 334°
2026-05-07 18:28 60.31723 24.97300 165 ft 10 kts 334°
2026-05-07 18:28 60.31781 24.97241 165 ft 9 kts 333°
2026-05-07 18:29 60.31835 24.97184 165 ft 8 kts 330°
2026-05-07 18:29 60.31837 24.97090 165 ft 6 kts 242°
2026-05-07 18:29 60.31827 24.97052 165 ft 1 kts 243°
2026-05-07 18:29 60.31825 24.97045 165 ft 0 kts 243°